SCP
0 0 0 0 0 0 0 0 0 0 0 0 0 0 0 0 0 0 0 0 0 0 0 0 0 0 0 0 1 1 1 0 0 0 0 0 0 0 0 0 0 0 0 0 0 0 0 0 0 0 0 0 0 0
0 0 0 0 0 0 0 0 0 0 0 0 0 0 0 0 0 0 0 0 0 0 0 0 0 0 0 0 0 1 1 1 0 0 0 0 0 0 0 0 0 0 0 0 0 0 0 0 0 0 0 0 0 0
0 0 0 0 0 0 0 0 0 0 0 0 0 0 0 0 0 0 0 0 0 0 0 0 0 0 0 0 0 0 0 1 1 1 0 0 0 0 0 0 0 0 0 0 0 0 0 0 0 0 0 0 0 0
0 0 0 0 0 0 0 0 0 0 0 0 0 0 0 0 0 0 0 0 0 0 0 0 0 0 0 0 0 0 0 1 1 0 0 0 0 0 0 0 0 0 0 0 0 0 0 0 0 0 0 0 0 0
0 0 0 0 0 0 0 0 0 0 0 0 0 0 0 0 0 0 0 0 0 0 0 0 0 0 0 0 0 0 0 0 0 1 0 0 0 0 0 0 0 0 1 0 0 0 0 0 0 0 0 0 0 0
0 0 0 0 0 0 0 0 0 0 0 0 0 0 0 0 0 0 0 0 0 0 0 0 0 0 0 0 0 0 0 0 0 0 1 0 1 1 0 0 0 0 0 0 0 0 0 0 0 0 0 0 0 0
0 0 0 0 0 0 0 0 0 0 0 0 0 0 0 0 0 0 0 0 0 0 0 0 0 -0 0 0 0 0 0 0 0 0 1 1 1 0 0 0 0 0 0 0 0 0 0 0 0 0 0 0 0 0
0 0 0 0 0 0 0 0 0 0 0 0 0 0 0 0 0 0 0 0 0 0 0 0 0 0 0 0 0 0 0 0 0 1 1 1 1 1 0 0 0 0 0 0 0 0 0 0 0 0 0 0 0 0
0 0 0 0 0 0 0 0 0 0 0 0 0 0 0 0 0 0 0 0 0 0 0 0 0 0 0 0 0 1 0 1 0 1 0 1 1 0 1 0 1 0 0 0 0 0 0 0 0 0 0 0 0 0
0 0 0 0 0 0 0 0 0 0 0 0 0 0 0 0 0 0 0 0 0 0 0 0 0 0 0 0 0 1 0 1 1 0 1 1 0 1 1 1 1 1 0 0 0 0 0 0 0 0 0 0 0 0
0 0 0 0 0 0 0 0 0 0 0 0 0 0 0 0 0 0 0 0 0 0 0 0 0 0 0 0 0 0 0 0 0 0 1 0 0 0 0 0 0 0 0 0 0 0 0 0 0 0 0 0 0 0
0 0 0 0 0 0 0 0 0 0 0 0 0 0 0 0 0 0 0 0 0 0 0 0 0 0 0 0 0 0 0 0 0 1 1 0 0 0 0 0 0 0 0 0 0 0 0 0 0 0 0 0 0 0
0 0 0 0 0 0 0 0 0 0 0 0 0 0 0 0 0 0 0 0 0 0 0 0 0 0 0 0 0 0 0 0 1 1 0 0 0 0 0 0 0 0 0 0 0 0 0 0 0 0 0 0 0 0
0 0 0 0 0 0 0 0 0 0 0 0 0 0 0 0 0 0 0 0 0 0 0 0 0 0 0 0 0 0 0 0 0 0 0 0 0 0 0 0 0 0 0 0 0 0 0 0 0 0 0 0 0 0
0 0 0 0 0 0 0 0 0 0 0 0 0 0 0 0 0 0 0 0 0 0 0 0 0 0 0 0 0 0 0 0 0 0 0 0 0 0 0 0 0 0 0 0 0 0 0 0 0 0 0 0 0 0
0 0 0 0 0 0 0 0 0 0 0 0 0 0 0 0 0 0 0 0 0 0 0 0 0 0 0 0 0 0 0 0 0 0 0 0 0 0 0 0 0 0 0 0 0 -0 -0 0 0 0 0 0 0 0
0 0 0 0 0 0 0 0 0 0 0 0 0 0 0 0 0 0 0 0 0 0 0 0 0 0 0 0 0 0 0 0 0 0 0 0 0 0 0 0 0 0 0 -0 -0 -0 0 0 0 0 0 0 0 0
0 0 0 0 0 0 0 0 0 0 0 0 0 0 0 0 0 0 0 0 0 0 0 0 0 0 0 0 0 0 0 0 0 0 0 0 0 0 0 0 0 -0 -0 -0 0 0 0 0 0 0 0 0 0 0
0 0 0 0 0 0 0 0 0 0 0 0 0 0 0 0 0 0 0 0 0 0 0 0 0 0 0 0 0 0 0 0 0 0 0 0 0 0 0 -0 -0 -0 0 0 0 0 0 0 0 0 0 0 0 0
0 0 0 0 0 0 0 0 0 0 0 0 0 0 0 0 0 0 0 0 0 0 0 0 0 0 0 0 0 0 0 0 0 0 0 0 0 -0 -0 0 0 0 0 0 0 0 0 0 0 0 0 0 0 0
0 0 0 0 0 0 0 0 0 0 0 0 0 0 0 0 0 0 0 0 0 0 0 0 0 0 0 0 0 0 0 0 0 -0 -0 0 0 0 0 0 0 0 0 0 0 0 0 0 0 0 0 0 0 0
0 0 0 0 0 0 0 0 0 0 0 0 0 0 0 0 0 0 0 0 0 0 0 0 0 0 0 0 0 0 0 0 0 0 0 0 0 0 0 0 0 0 0 0 0 0 0 0 0 0 0 0 0 0
0 0 0 0 0 0 0 0 0 0 0 0 0 0 0 0 0 -0 -0 -0 0 0 0 0 0 0 0 0 0 0 0 0 0 0 0 0 0 0 0 0 0 0 0 0 0 0 0 0 0 0 0 0 0 0
0 0 0 0 0 0 0 0 0 0 0 0 0 0 0 0 0 0 -0 0 0 0 0 0 0 0 0 0 0 0 0 0 0 0 0 0 0 0 0 0 0 0 0 0 0 0 0 0 0 0 0 0 0 0
0 0 0 0 0 0 0 0 0 -0 -0 -0 0 0 0 0 -0 0 0 0 0 0 0 0 0 0 0 0 0 0 0 0 0 0 0 0 0 0 0 0 0 0 0 0 0 0 0 0 0 0 0 0 0 0
0 0 0 0 0 0 0 0 -0 -0 -0 -0 -0 0 0 0 0 0 -0 -0 -0 0 0 0 0 0 0 0 0 0 0 0 0 0 0 0 0 0 0 0 0 0 0 0 0 0 0 0 0 0 0 0 0 0
0 0 0 -0 -0 -0 0 0 0 0 0 0 -0 0 0 0 0 0 0 0 -0 0 0 0 0 0 0 0 0 0 0 0 0 0 0 0 0 0 0 0 0 0 0 0 0 0 0 0 0 0 0 0 0 0
0 0 0 -0 0 0 0 0 0 0 0 0 0 0 0 0 0 -0 -0 0 0 0 0 0 0 0 0 0 0 0 0 0 0 0 0 0 0 0 0 0 0 0 0 0 0 0 0 0 0 0 0 0 0 0
0 0 0 0 0 0 0 0 0 0 0 0 0 0 0 0 -0 -0 -0 0 0 0 0 0 0 0 0 0 0 0 0 0 0 0 0 0 0 0 0 0 0 0 0 0 0 0 0 0 0 0 0 0 0 0
0 0 0 0 0 0 0 0 0 0 0 -0 0 -0 -0 -0 -0 -0 -0 0 0 0 0 0 0 0 0 0 0 0 0 0 0 0 0 0 0 0 0 0 0 0 0 0 0 0 0 0 0 0 0 0 0 0
0 0 0 0 0 0 0 -0 -0 -0 -0 -0 -0 -0 -0 -0 -0 0 0 0 0 0 0 0 0 0 0 0 0 0 0 0 0 0 0 0 0 0 0 0 0 0 0 0 0 0 0 0 0 0 0 0 0 0
0 0 0 0 0 -0 0 0 -0 -0 -0 -0 -0 -0 -0 -0 0 0 0 0 0 0 0 0 0 0 0 0 0 0 0 0 0 0 0 0 0 0 0 0 0 0 0 0 0 0 0 0 0 0 0 0 0 0
0 -0 0 0 -0 0 0 0 0 -0 -0 -0 -0 0 0 0 0 0 0 -0 0 0 0 0 0 0 0 0 0 0 0 0 0 0 0 0 0 0 0 0 0 0 0 0 0 0 0 0 0 0 0 0 0 0
Wind_Speed_500mb
29 29 28 27 26 26 27 29 30 30 29 31 30 29 27 26 23 17 12 20 14 23 49 41 31 30 26 30 19 21 7 16 16 14 17 11 10 14 13 17 8 17 15 14 15 12 9 15 11 14 6 13 10 8
30 32 31 31 28 28 28 29 30 30 29 29 30 29 26 26 24 20 11 15 21 28 41 48 52 51 50 39 26 14 8 17 8 9 5 10 10 13 11 16 7 13 10 8 11 4 7 9 15 5 14 15 12 11
31 33 33 33 31 28 29 30 31 30 29 30 30 29 27 27 25 25 25 21 29 35 52 46 36 21 25 37 44 16 23 8 5 13 23 12 7 15 16 3 16 13 18 14 9 4 16 22 19 19 20 16 11 10
32 32 32 33 32 30 29 31 32 31 30 29 31 31 28 27 28 26 28 19 20 23 19 15 13 18 12 19 34 57 38 14 17 20 26 15 7 3 14 3 18 7 21 12 20 29 25 19 19 19 18 13 13 12
33 33 33 33 31 30 30 32 33 32 31 31 32 32 29 28 30 29 29 26 22 17 18 41 49 42 35 44 38 35 46 39 33 23 15 15 25 10 17 9 19 5 5 5 27 35 32 21 23 20 22 21 23 21
32 33 34 32 30 29 30 30 33 33 32 32 32 33 29 27 27 19 5 4 11 12 14 10 20 24 19 19 34 45 36 31 34 34 22 19 4 5 9 16 26 28 18 25 31 22 18 14 17 23 24 21 20 19
32 33 32 31 29 29 30 31 32 33 34 33 33 34 30 27 27 16 10 12 16 5 12 15 15 20 20 27 24 34 40 35 31 40 35 31 22 11 18 26 33 21 22 17 14 6 11 15 18 20 24 24 28 25
35 34 31 29 27 26 29 32 33 33 32 33 35 34 30 29 34 35 21 34 34 17 15 9 10 19 24 27 31 30 33 34 35 33 24 24 10 17 11 20 22 19 15 13 15 19 9 23 23 23 23 23 23 22
35 33 30 27 25 27 30 32 33 31 31 32 35 29 28 23 16 14 29 31 29 20 17 14 18 3 16 30 21 21 26 11 24 19 33 14 12 14 8 16 13 15 18 20 15 20 21 24 25 23 22 21 19 14
34 32 29 27 25 29 31 31 29 28 26 28 23 9 14 13 20 19 9 14 18 20 21 29 41 23 20 12 8 4 13 9 9 23 30 11 24 20 8 5 7 4 7 11 20 28 28 26 25 22 18 19 18 25
32 30 28 27 27 28 28 24 23 23 8 6 6 9 9 11 7 13 15 19 24 13 23 36 54 33 38 20 7 18 10 8 10 12 15 10 14 11 12 20 16 13 13 13 13 22 22 26 27 28 25 23 13 14
27 28 28 27 27 26 22 21 20 15 13 11 17 31 20 12 16 13 12 14 15 17 22 27 35 43 33 32 13 16 9 9 10 19 7 11 8 20 24 24 25 24 31 34 33 38 37 38 34 23 15 9 4 3
30 30 29 27 25 22 20 19 19 21 11 10 11 10 15 16 7 14 19 15 13 18 22 25 12 21 23 18 16 12 12 13 9 5 8 5 24 19 21 22 23 26 28 29 29 28 24 23 17 9 5 5 10 6
35 31 29 26 23 19 20 19 14 10 8 7 9 11 10 13 14 21 22 16 13 17 13 16 6 3 12 17 11 13 15 8 10 19 7 7 24 26 22 23 25 29 31 32 28 26 20 17 16 14 9 4 2 5
31 30 28 26 23 22 21 18 18 20 8 9 12 10 18 34 25 12 21 28 11 39 21 13 13 16 7 9 7 9 6 11 3 7 5 24 28 31 29 26 28 29 30 32 20 21 23 22 15 7 3 3 7 10
28 26 28 25 22 19 18 10 18 19 9 11 16 20 32 24 18 15 10 18 23 29 35 29 4 6 11 8 9 5 9 10 6 7 20 26 30 25 29 30 28 27 24 21 16 16 14 8 5 5 7 9 12 15
35 21 20 18 17 19 16 18 18 17 13 13 20 30 32 31 18 14 22 16 24 21 13 17 12 11 5 2 7 9 7 6 17 26 29 31 35 31 30 29 24 19 18 11 11 7 5 8 11 13 13 16 19 20
25 19 23 16 11 12 17 27 13 15 21 27 29 29 23 14 15 13 15 15 13 11 16 5 15 8 12 13 7 7 16 30 36 38 37 37 35 30 21 18 16 16 13 7 3 5 7 13 18 19 21 21 24 25
25 20 16 18 25 16 18 19 19 11 23 34 40 40 23 6 6 11 12 14 13 10 13 10 11 6 6 10 17 25 23 30 38 36 34 24 19 17 17 13 11 9 5 1 6 10 12 19 20 21 24 25 25 28
38 39 24 22 31 12 12 15 25 21 17 21 39 39 22 8 3 4 15 14 15 7 13 9 8 10 11 20 30 42 40 35 32 28 16 13 11 11 10 9 6 4 0 7 10 11 19 22 22 24 24 26 22 27
29 39 39 30 30 27 11 11 20 21 24 31 21 32 12 9 2 8 11 15 12 11 10 13 19 32 41 49 42 36 28 18 12 10 10 12 11 11 7 5 2 4 9 13 17 19 21 24 23 23 24 24 27 32
27 37 26 36 14 12 17 21 18 11 17 18 20 23 10 7 7 8 8 17 11 10 11 23 25 35 39 36 29 23 22 21 18 17 17 14 9 5 3 4 8 11 14 15 17 22 22 20 22 20 28 29 31 33
35 42 23 27 15 13 20 20 21 22 10 13 23 14 7 7 7 9 11 10 9 18 30 32 32 32 34 28 26 24 19 15 13 11 9 8 7 5 4 6 9 13 15 17 18 19 20 23 21 28 29 32 36 37
48 25 18 22 23 12 14 12 18 13 7 6 5 9 8 10 11 9 7 7 11 20 32 31 26 27 25 22 21 18 14 12 11 10 7 4 3 5 6 9 11 12 15 17 18 21 23 26 28 31 34 37 38 40
19 16 12 15 17 15 11 11 21 11 4 7 5 5 7 8 5 4 6 14 20 26 23 18 16 16 18 16 14 13 13 9 7 8 9 9 7 7 5 10 12 11 16 20 22 24 27 30 33 35 37 38 40 40
12 23 18 18 15 11 10 6 12 8 5 5 6 10 7 7 5 6 5 24 33 34 27 19 17 14 12 9 10 10 10 9 6 6 7 10 10 11 12 13 14 13 19 22 24 28 32 34 35 37 39 40 39 40
8 6 9 8 7 10 8 12 13 10 6 5 8 13 7 5 5 5 28 33 29 28 26 19 12 9 9 9 9 8 9 10 8 5 5 6 10 11 11 14 15 17 26 21 25 31 34 36 37 40 40 39 36 37
2 4 5 8 7 14 6 8 8 6 3 7 1 8 5 5 5 16 22 35 38 34 23 16 13 9 8 8 7 6 7 7 9 8 9 5 9 12 14 17 18 28 23 24 28 32 32 34 39 36 36 36 37 37
3 3 6 12 7 10 12 8 8 7 9 8 7 5 7 9 24 45 47 42 36 26 21 16 10 9 9 8 8 6 7 8 8 10 12 12 13 15 20 21 22 24 26 28 31 32 29 36 32 33 31 35 38 37
5 9 9 12 9 9 10 7 5 7 10 20 31 50 49 39 43 44 39 31 25 19 14 12 10 6 3 2 3 5 8 9 11 12 13 14 16 18 19 22 25 25 26 27 29 28 30 35 34 33 34 36 38 40
11 12 11 8 9 18 31 42 51 55 58 59 51 58 56 49 36 25 23 21 19 16 14 11 8 6 3 2 3 3 3 7 11 12 13 10 14 17 20 21 24 25 25 27 29 30 32 34 35 36 37 39 40 41
20 19 28 35 32 31 36 39 43 46 44 45 45 45 39 28 24 17 17 15 14 11 11 8 5 3 4 4 5 6 6 4 6 9 11 12 14 17 17 18 21 21 24 27 28 30 33 34 37 37 39 40 42 42
46 47 46 40 34 23 31 29 27 30 28 28 25 18 12 14 11 12 16 12 12 12 9 7 5 3 5 5 3 5 7 6 17 18 24 26 20 18 14 15 20 21 26 28 29 32 32 34 36 38 39 42 42 42
Wind_Direction_500mb
282 284 288 292 294 301 308 313 319 326 330 331 332 333 330 329 326 329 279 301 332 294 283 281 284 288 290 282 306 3 182 212 200 248 268 288 237 244 257 259 260 254 275 264 230 282 279 145 175 237 135 160 186 201
282 281 283 286 290 292 301 308 314 320 327 328 328 327 325 322 319 313 309 297 296 279 269 287 281 272 260 258 286 287 301 297 292 237 244 271 247 238 243 285 159 247 251 315 311 352 163 222 260 123 189 187 191 198
279 279 279 281 284 288 294 302 309 314 322 325 324 322 318 313 312 306 298 305 315 289 293 271 263 273 258 244 225 242 237 302 258 321 306 305 304 300 276 347 308 220 205 231 271 3 236 235 228 216 210 212 196 212
276 277 277 279 280 284 288 295 304 311 316 319 319 316 312 307 303 299 296 278 299 297 283 290 274 258 275 245 229 223 237 300 308 275 261 265 275 123 283 266 281 358 174 286 280 259 230 229 208 200 203 174 174 138
272 272 277 279 279 282 285 291 299 305 309 311 313 312 309 303 299 297 290 270 260 260 303 303 297 280 255 243 236 230 234 244 258 280 247 254 274 261 277 309 274 132 151 45 297 334 216 169 159 170 173 162 152 142
270 269 274 278 277 279 286 287 293 299 302 303 307 310 306 299 300 328 258 225 211 241 287 287 309 269 244 227 219 220 220 225 231 242 256 269 183 236 227 247 251 256 239 239 255 301 324 117 154 174 185 170 154 149
267 266 271 273 274 278 285 290 293 296 299 302 305 304 297 287 282 251 289 189 188 344 265 275 261 209 215 222 220 212 216 224 229 232 238 244 246 219 257 255 267 269 258 236 227 217 106 152 174 177 172 158 148 136
266 264 270 266 270 281 286 289 291 294 297 298 300 300 291 280 276 275 257 255 260 265 253 269 264 267 201 211 208 204 204 215 230 232 240 234 230 225 254 256 254 263 244 223 211 193 289 181 159 168 163 147 149 142
264 263 264 258 263 276 284 287 290 294 297 301 300 297 286 260 244 241 240 258 237 231 294 240 263 329 181 230 211 169 226 185 242 221 225 227 229 226 286 288 214 240 227 222 204 186 156 161 165 167 165 160 157 147
258 257 250 247 260 274 280 286 292 296 301 304 303 248 229 167 233 253 247 199 207 214 230 257 268 266 286 298 221 164 247 198 232 223 223 228 243 62 67 16 303 262 232 219 191 162 166 162 159 161 139 154 138 133
252 249 238 247 261 271 275 283 294 302 323 312 272 266 309 286 250 217 225 211 189 217 216 238 236 248 246 256 258 206 191 221 228 211 189 227 223 98 83 68 61 66 100 93 143 146 154 158 150 143 125 149 159 190
236 236 238 249 259 265 267 277 286 300 274 269 291 291 286 225 217 226 212 209 222 219 202 216 221 216 238 240 249 275 258 234 244 139 191 245 89 105 101 88 78 88 94 94 103 113 122 142 149 158 157 171 195 339
234 237 241 245 252 252 257 269 284 282 262 273 238 252 218 224 227 227 212 199 216 204 228 203 198 183 202 210 222 244 231 252 112 208 247 65 130 121 118 119 107 102 106 109 104 111 129 135 143 137 116 32 42 72
234 231 234 238 235 238 255 273 269 222 263 250 246 237 228 212 225 214 238 239 291 306 253 188 175 177 197 190 237 213 233 251 246 243 243 122 138 129 120 121 119 111 115 113 111 108 102 91 85 74 89 113 199 281
221 223 227 225 224 231 257 264 220 202 229 248 244 242 230 247 295 281 297 304 334 306 294 266 201 181 230 237 218 237 195 224 257 52 61 104 120 122 119 123 119 111 108 102 101 96 85 77 78 82 51 320 303 301
206 215 223 224 229 242 254 248 210 209 239 237 238 253 270 278 295 327 318 320 333 329 310 299 13 167 216 212 223 236 276 37 45 57 109 117 114 126 123 124 122 114 99 95 81 67 57 60 36 352 325 309 309 308
195 198 222 223 224 220 229 200 203 214 238 230 236 238 270 288 313 323 323 314 316 300 253 253 221 232 242 251 85 22 38 36 95 99 113 120 119 122 124 114 108 89 82 116 125 105 33 353 346 330 312 307 306 304
193 213 234 240 200 201 198 199 231 232 236 245 265 269 279 307 318 336 328 329 326 319 312 299 321 343 18 4 61 88 89 96 110 118 118 121 120 124 124 112 101 120 116 92 94 357 345 332 329 323 319 314 307 306
199 207 230 201 179 184 194 211 229 265 240 239 241 259 288 296 312 347 345 334 326 328 320 13 40 42 54 67 107 114 112 112 113 115 117 114 109 111 115 127 131 128 135 45 341 338 330 334 325 322 320 320 318 316
210 202 208 203 205 214 228 214 203 241 261 252 224 245 245 257 235 18 19 7 8 40 44 39 41 26 85 108 131 129 125 125 122 111 111 119 123 129 138 139 148 149 46 329 318 325 328 329 327 324 325 319 314 314
205 204 204 216 216 236 281 277 222 235 240 257 233 219 211 205 75 11 20 16 56 43 58 59 89 111 114 114 114 112 114 123 138 137 148 138 141 129 124 113 61 346 329 330 328 328 331 329 329 328 326 326 325 320
192 182 185 199 220 236 258 247 245 304 244 241 194 182 193 145 92 41 32 47 54 47 74 106 111 117 118 113 104 107 114 114 104 95 99 111 118 122 95 3 334 331 331 331 332 329 330 331 330 336 331 328 323 324
174 164 168 188 234 236 257 236 242 236 235 188 159 137 112 102 101 86 76 62 66 99 112 123 120 114 108 106 105 97 96 95 93 89 86 86 85 62 25 2 354 344 339 338 335 335 335 334 339 332 327 328 327 325
165 179 187 188 209 259 255 240 220 236 218 121 92 117 125 125 118 76 89 85 123 133 132 122 118 110 102 96 91 86 83 80 81 69 56 33 35 21 6 356 353 350 346 343 342 339 336 333 331 330 329 328 328 327
187 210 208 228 221 220 229 234 209 181 233 117 106 120 128 131 92 93 107 134 138 133 128 125 119 118 112 104 94 74 65 60 56 58 42 32 5 334 336 344 343 345 346 344 341 338 335 333 331 330 329 327 327 327
221 200 203 208 201 208 228 238 177 139 98 96 88 112 99 92 78 92 106 137 145 145 141 146 140 125 118 99 94 64 42 38 40 50 27 18 10 359 349 341 343 344 339 337 334 334 332 331 329 328 327 327 328 327
244 253 189 241 308 318 305 304 104 109 170 182 153 164 130 92 98 93 143 146 150 161 161 156 136 124 114 97 78 63 49 43 68 62 17 13 11 3 357 347 342 333 337 337 333 332 331 330 329 328 327 328 328 330
157 351 21 14 43 22 329 23 31 48 58 317 278 45 66 69 107 147 153 153 150 156 152 137 129 126 115 100 82 54 27 11 359 24 336 328 351 349 356 346 330 333 342 330 328 331 330 330 328 329 329 328 329 330
86 4 143 46 85 59 37 27 4 355 340 341 92 92 95 89 133 137 142 148 156 146 141 140 135 117 99 91 77 53 27 17 15 1 355 348 342 338 335 337 333 331 329 328 331 331 331 339 337 333 331 330 331 330
55 36 91 46 49 26 342 321 12 64 89 107 108 110 105 105 121 135 135 135 137 143 145 141 133 138 131 120 86 28 35 31 18 11 357 351 344 335 335 333 332 332 332 331 331 332 334 337 336 338 337 334 334 335
123 82 60 78 91 98 96 96 96 96 100 104 108 108 112 117 114 116 126 132 136 130 127 128 117 105 94 38 4 339 102 1 359 5 357 6 342 332 330 337 338 334 334 335 335 333 334 334 335 335 335 335 334 333
140 113 123 122 122 116 108 101 100 99 103 107 112 117 124 119 106 125 132 132 137 139 135 123 126 100 82 70 52 36 107 357 345 356 3 352 340 337 344 348 336 341 340 338 336 334 335 335 335 335 335 335 335 335
123 128 121 117 122 123 120 107 96 98 106 116 126 132 104 97 118 157 162 150 162 154 142 122 110 125 113 112 115 17 33 315 334 348 347 348 350 353 9 352 349 355 348 346 341 337 335 337 338 338 337 337 335 334
Wind_Speed_850mb
29 29 28 27 26 26 27 29 30 30 29 31 30 29 27 26 23 17 12 20 14 23 49 41 31 30 26 30 19 21 7 16 16 14 17 11 10 14 13 17 8 17 15 14 15 12 9 15 11 14 6 13 10 8
30 32 31 31 28 28 28 29 30 30 29 29 30 29 26 26 24 20 11 15 21 28 41 48 52 51 50 39 26 14 8 17 8 9 5 10 10 13 11 16 7 13 10 8 11 4 7 9 15 5 14 15 12 11
31 33 33 33 31 28 29 30 31 30 29 30 30 29 27 27 25 25 25 21 29 35 52 46 36 21 25 37 44 16 23 8 5 13 23 12 7 15 16 3 16 13 18 14 9 4 16 22 19 19 20 16 11 10
32 32 32 33 32 30 29 31 32 31 30 29 31 31 28 27 28 26 28 19 20 23 19 15 13 18 12 19 34 57 38 14 17 20 26 15 7 3 14 3 18 7 21 12 20 29 25 19 19 19 18 13 13 12
33 33 33 33 31 30 30 32 33 32 31 31 32 32 29 28 30 29 29 26 22 17 18 41 49 42 35 44 38 35 46 39 33 23 15 15 25 10 17 9 19 5 5 5 27 35 32 21 23 20 22 21 23 21
32 33 34 32 30 29 30 30 33 33 32 32 32 33 29 27 27 19 5 4 11 12 14 10 20 24 19 19 34 45 36 31 34 34 22 19 4 5 9 16 26 28 18 25 31 22 18 14 17 23 24 21 20 19
32 33 32 31 29 29 30 31 32 33 34 33 33 34 30 27 27 16 10 12 16 5 12 15 15 20 20 27 24 34 40 35 31 40 35 31 22 11 18 26 33 21 22 17 14 6 11 15 18 20 24 24 28 25
35 34 31 29 27 26 29 32 33 33 32 33 35 34 30 29 34 35 21 34 34 17 15 9 10 19 24 27 31 30 33 34 35 33 24 24 10 17 11 20 22 19 15 13 15 19 9 23 23 23 23 23 23 22
35 33 30 27 25 27 30 32 33 31 31 32 35 29 28 23 16 14 29 31 29 20 17 14 18 3 16 30 21 21 26 11 24 19 33 14 12 14 8 16 13 15 18 20 15 20 21 24 25 23 22 21 19 14
34 32 29 27 25 29 31 31 29 28 26 28 23 9 14 13 20 19 9 14 18 20 21 29 41 23 20 12 8 4 13 9 9 23 30 11 24 20 8 5 7 4 7 11 20 28 28 26 25 22 18 19 18 25
32 30 28 27 27 28 28 24 23 23 8 6 6 9 9 11 7 13 15 19 24 13 23 36 54 33 38 20 7 18 10 8 10 12 15 10 14 11 12 20 16 13 13 13 13 22 22 26 27 28 25 23 13 14
27 28 28 27 27 26 22 21 20 15 13 11 17 31 20 12 16 13 12 14 15 17 22 27 35 43 33 32 13 16 9 9 10 19 7 11 8 20 24 24 25 24 31 34 33 38 37 38 34 23 15 9 4 3
30 30 29 27 25 22 20 19 19 21 11 10 11 10 15 16 7 14 19 15 13 18 22 25 12 21 23 18 16 12 12 13 9 5 8 5 24 19 21 22 23 26 28 29 29 28 24 23 17 9 5 5 10 6
35 31 29 26 23 19 20 19 14 10 8 7 9 11 10 13 14 21 22 16 13 17 13 16 6 3 12 17 11 13 15 8 10 19 7 7 24 26 22 23 25 29 31 32 28 26 20 17 16 14 9 4 2 5
31 30 28 26 23 22 21 18 18 20 8 9 12 10 18 34 25 12 21 28 11 39 21 13 13 16 7 9 7 9 6 11 3 7 5 24 28 31 29 26 28 29 30 32 20 21 23 22 15 7 3 3 7 10
28 26 28 25 22 19 18 10 18 19 9 11 16 20 32 24 18 15 10 18 23 29 35 29 4 6 11 8 9 5 9 10 6 7 20 26 30 25 29 30 28 27 24 21 16 16 14 8 5 5 7 9 12 15
35 21 20 18 17 19 16 18 18 17 13 13 20 30 32 31 18 14 22 16 24 21 13 17 12 11 5 2 7 9 7 6 17 26 29 31 35 31 30 29 24 19 18 11 11 7 5 8 11 13 13 16 19 20
25 19 23 16 11 12 17 27 13 15 21 27 29 29 23 14 15 13 15 15 13 11 16 5 15 8 12 13 7 7 16 30 36 38 37 37 35 30 21 18 16 16 13 7 3 5 7 13 18 19 21 21 24 25
25 20 16 18 25 16 18 19 19 11 23 34 40 40 23 6 6 11 12 14 13 10 13 10 11 6 6 10 17 25 23 30 38 36 34 24 19 17 17 13 11 9 5 1 6 10 12 19 20 21 24 25 25 28
38 39 24 22 31 12 12 15 25 21 17 21 39 39 22 8 3 4 15 14 15 7 13 9 8 10 11 20 30 42 40 35 32 28 16 13 11 11 10 9 6 4 0 7 10 11 19 22 22 24 24 26 22 27
29 39 39 30 30 27 11 11 20 21 24 31 21 32 12 9 2 8 11 15 12 11 10 13 19 32 41 49 42 36 28 18 12 10 10 12 11 11 7 5 2 4 9 13 17 19 21 24 23 23 24 24 27 32
27 37 26 36 14 12 17 21 18 11 17 18 20 23 10 7 7 8 8 17 11 10 11 23 25 35 39 36 29 23 22 21 18 17 17 14 9 5 3 4 8 11 14 15 17 22 22 20 22 20 28 29 31 33
35 42 23 27 15 13 20 20 21 22 10 13 23 14 7 7 7 9 11 10 9 18 30 32 32 32 34 28 26 24 19 15 13 11 9 8 7 5 4 6 9 13 15 17 18 19 20 23 21 28 29 32 36 37
48 25 18 22 23 12 14 12 18 13 7 6 5 9 8 10 11 9 7 7 11 20 32 31 26 27 25 22 21 18 14 12 11 10 7 4 3 5 6 9 11 12 15 17 18 21 23 26 28 31 34 37 38 40
19 16 12 15 17 15 11 11 21 11 4 7 5 5 7 8 5 4 6 14 20 26 23 18 16 16 18 16 14 13 13 9 7 8 9 9 7 7 5 10 12 11 16 20 22 24 27 30 33 35 37 38 40 40
12 23 18 18 15 11 10 6 12 8 5 5 6 10 7 7 5 6 5 24 33 34 27 19 17 14 12 9 10 10 10 9 6 6 7 10 10 11 12 13 14 13 19 22 24 28 32 34 35 37 39 40 39 40
8 6 9 8 7 10 8 12 13 10 6 5 8 13 7 5 5 5 28 33 29 28 26 19 12 9 9 9 9 8 9 10 8 5 5 6 10 11 11 14 15 17 26 21 25 31 34 36 37 40 40 39 36 37
2 4 5 8 7 14 6 8 8 6 3 7 1 8 5 5 5 16 22 35 38 34 23 16 13 9 8 8 7 6 7 7 9 8 9 5 9 12 14 17 18 28 23 24 28 32 32 34 39 36 36 36 37 37
3 3 6 12 7 10 12 8 8 7 9 8 7 5 7 9 24 45 47 42 36 26 21 16 10 9 9 8 8 6 7 8 8 10 12 12 13 15 20 21 22 24 26 28 31 32 29 36 32 33 31 35 38 37
5 9 9 12 9 9 10 7 5 7 10 20 31 50 49 39 43 44 39 31 25 19 14 12 10 6 3 2 3 5 8 9 11 12 13 14 16 18 19 22 25 25 26 27 29 28 30 35 34 33 34 36 38 40
11 12 11 8 9 18 31 42 51 55 58 59 51 58 56 49 36 25 23 21 19 16 14 11 8 6 3 2 3 3 3 7 11 12 13 10 14 17 20 21 24 25 25 27 29 30 32 34 35 36 37 39 40 41
20 19 28 35 32 31 36 39 43 46 44 45 45 45 39 28 24 17 17 15 14 11 11 8 5 3 4 4 5 6 6 4 6 9 11 12 14 17 17 18 21 21 24 27 28 30 33 34 37 37 39 40 42 42
46 47 46 40 34 23 31 29 27 30 28 28 25 18 12 14 11 12 16 12 12 12 9 7 5 3 5 5 3 5 7 6 17 18 24 26 20 18 14 15 20 21 26 28 29 32 32 34 36 38 39 42 42 42
Wind_Direction_850mb
282 284 288 292 294 301 308 313 319 326 330 331 332 333 330 329 326 329 279 301 332 294 283 281 284 288 290 282 306 3 182 212 200 248 268 288 237 244 257 259 260 254 275 264 230 282 279 145 175 237 135 160 186 201
282 281 283 286 290 292 301 308 314 320 327 328 328 327 325 322 319 313 309 297 296 279 269 287 281 272 260 258 286 287 301 297 292 237 244 271 247 238 243 285 159 247 251 315 311 352 163 222 260 123 189 187 191 198
279 279 279 281 284 288 294 302 309 314 322 325 324 322 318 313 312 306 298 305 315 289 293 271 263 273 258 244 225 242 237 302 258 321 306 305 304 300 276 347 308 220 205 231 271 3 236 235 228 216 210 212 196 212
276 277 277 279 280 284 288 295 304 311 316 319 319 316 312 307 303 299 296 278 299 297 283 290 274 258 275 245 229 223 237 300 308 275 261 265 275 123 283 266 281 358 174 286 280 259 230 229 208 200 203 174 174 138
272 272 277 279 279 282 285 291 299 305 309 311 313 312 309 303 299 297 290 270 260 260 303 303 297 280 255 243 236 230 234 244 258 280 247 254 274 261 277 309 274 132 151 45 297 334 216 169 159 170 173 162 152 142
270 269 274 278 277 279 286 287 293 299 302 303 307 310 306 299 300 328 258 225 211 241 287 287 309 269 244 227 219 220 220 225 231 242 256 269 183 236 227 247 251 256 239 239 255 301 324 117 154 174 185 170 154 149
267 266 271 273 274 278 285 290 293 296 299 302 305 304 297 287 282 251 289 189 188 344 265 275 261 209 215 222 220 212 216 224 229 232 238 244 246 219 257 255 267 269 258 236 227 217 106 152 174 177 172 158 148 136
266 264 270 266 270 281 286 289 291 294 297 298 300 300 291 280 276 275 257 255 260 265 253 269 264 267 201 211 208 204 204 215 230 232 240 234 230 225 254 256 254 263 244 223 211 193 289 181 159 168 163 147 149 142
264 263 264 258 263 276 284 287 290 294 297 301 300 297 286 260 244 241 240 258 237 231 294 240 263 329 181 230 211 169 226 185 242 221 225 227 229 226 286 288 214 240 227 222 204 186 156 161 165 167 165 160 157 147
258 257 250 247 260 274 280 286 292 296 301 304 303 248 229 167 233 253 247 199 207 214 230 257 268 266 286 298 221 164 247 198 232 223 223 228 243 62 67 16 303 262 232 219 191 162 166 162 159 161 139 154 138 133
252 249 238 247 261 271 275 283 294 302 323 312 272 266 309 286 250 217 225 211 189 217 216 238 236 248 246 256 258 206 191 221 228 211 189 227 223 98 83 68 61 66 100 93 143 146 154 158 150 143 125 149 159 190
236 236 238 249 259 265 267 277 286 300 274 269 291 291 286 225 217 226 212 209 222 219 202 216 221 216 238 240 249 275 258 234 244 139 191 245 89 105 101 88 78 88 94 94 103 113 122 142 149 158 157 171 195 339
234 237 241 245 252 252 257 269 284 282 262 273 238 252 218 224 227 227 212 199 216 204 228 203 198 183 202 210 222 244 231 252 112 208 247 65 130 121 118 119 107 102 106 109 104 111 129 135 143 137 116 32 42 72
234 231 234 238 235 238 255 273 269 222 263 250 246 237 228 212 225 214 238 239 291 306 253 188 175 177 197 190 237 213 233 251 246 243 243 122 138 129 120 121 119 111 115 113 111 108 102 91 85 74 89 113 199 281
221 223 227 225 224 231 257 264 220 202 229 248 244 242 230 247 295 281 297 304 334 306 294 266 201 181 230 237 218 237 195 224 257 52 61 104 120 122 119 123 119 111 108 102 101 96 85 77 78 82 51 320 303 301
206 215 223 224 229 242 254 248 210 209 239 237 238 253 270 278 295 327 318 320 333 329 310 299 13 167 216 212 223 236 276 37 45 57 109 117 114 126 123 124 122 114 99 95 81 67 57 60 36 352 325 309 309 308
195 198 222 223 224 220 229 200 203 214 238 230 236 238 270 288 313 323 323 314 316 300 253 253 221 232 242 251 85 22 38 36 95 99 113 120 119 122 124 114 108 89 82 116 125 105 33 353 346 330 312 307 306 304
193 213 234 240 200 201 198 199 231 232 236 245 265 269 279 307 318 336 328 329 326 319 312 299 321 343 18 4 61 88 89 96 110 118 118 121 120 124 124 112 101 120 116 92 94 357 345 332 329 323 319 314 307 306
199 207 230 201 179 184 194 211 229 265 240 239 241 259 288 296 312 347 345 334 326 328 320 13 40 42 54 67 107 114 112 112 113 115 117 114 109 111 115 127 131 128 135 45 341 338 330 334 325 322 320 320 318 316
210 202 208 203 205 214 228 214 203 241 261 252 224 245 245 257 235 18 19 7 8 40 44 39 41 26 85 108 131 129 125 125 122 111 111 119 123 129 138 139 148 149 46 329 318 325 328 329 327 324 325 319 314 314
205 204 204 216 216 236 281 277 222 235 240 257 233 219 211 205 75 11 20 16 56 43 58 59 89 111 114 114 114 112 114 123 138 137 148 138 141 129 124 113 61 346 329 330 328 328 331 329 329 328 326 326 325 320
192 182 185 199 220 236 258 247 245 304 244 241 194 182 193 145 92 41 32 47 54 47 74 106 111 117 118 113 104 107 114 114 104 95 99 111 118 122 95 3 334 331 331 331 332 329 330 331 330 336 331 328 323 324
174 164 168 188 234 236 257 236 242 236 235 188 159 137 112 102 101 86 76 62 66 99 112 123 120 114 108 106 105 97 96 95 93 89 86 86 85 62 25 2 354 344 339 338 335 335 335 334 339 332 327 328 327 325
165 179 187 188 209 259 255 240 220 236 218 121 92 117 125 125 118 76 89 85 123 133 132 122 118 110 102 96 91 86 83 80 81 69 56 33 35 21 6 356 353 350 346 343 342 339 336 333 331 330 329 328 328 327
187 210 208 228 221 220 229 234 209 181 233 117 106 120 128 131 92 93 107 134 138 133 128 125 119 118 112 104 94 74 65 60 56 58 42 32 5 334 336 344 343 345 346 344 341 338 335 333 331 330 329 327 327 327
221 200 203 208 201 208 228 238 177 139 98 96 88 112 99 92 78 92 106 137 145 145 141 146 140 125 118 99 94 64 42 38 40 50 27 18 10 359 349 341 343 344 339 337 334 334 332 331 329 328 327 327 328 327
244 253 189 241 308 318 305 304 104 109 170 182 153 164 130 92 98 93 143 146 150 161 161 156 136 124 114 97 78 63 49 43 68 62 17 13 11 3 357 347 342 333 337 337 333 332 331 330 329 328 327 328 328 330
157 351 21 14 43 22 329 23 31 48 58 317 278 45 66 69 107 147 153 153 150 156 152 137 129 126 115 100 82 54 27 11 359 24 336 328 351 349 356 346 330 333 342 330 328 331 330 330 328 329 329 328 329 330
86 4 143 46 85 59 37 27 4 355 340 341 92 92 95 89 133 137 142 148 156 146 141 140 135 117 99 91 77 53 27 17 15 1 355 348 342 338 335 337 333 331 329 328 331 331 331 339 337 333 331 330 331 330
55 36 91 46 49 26 342 321 12 64 89 107 108 110 105 105 121 135 135 135 137 143 145 141 133 138 131 120 86 28 35 31 18 11 357 351 344 335 335 333 332 332 332 331 331 332 334 337 336 338 337 334 334 335
123 82 60 78 91 98 96 96 96 96 100 104 108 108 112 117 114 116 126 132 136 130 127 128 117 105 94 38 4 339 102 1 359 5 357 6 342 332 330 337 338 334 334 335 335 333 334 334 335 335 335 335 334 333
140 113 123 122 122 116 108 101 100 99 103 107 112 117 124 119 106 125 132 132 137 139 135 123 126 100 82 70 52 36 107 357 345 356 3 352 340 337 344 348 336 341 340 338 336 334 335 335 335 335 335 335 335 335
123 128 121 117 122 123 120 107 96 98 106 116 126 132 104 97 118 157 162 150 162 154 142 122 110 125 113 112 115 17 33 315 334 348 347 348 350 353 9 352 349 355 348 346 341 337 335 337 338 338 337 337 335 334